{"data":{"norad_id":44299,"intl_designator":"2019-030A","name":"COSMOS 2534 (758)","alt_names":[],"object_type":"PAYLOAD","status":"ACTIVE","operator":null,"country":"CIS","launch_date":"2019-05-27","launch_site_code":"PLMSC","launch_vehicle":null,"mission":null,"orbit_class":"UNKNOWN","rcs_meters":null,"size_class":null,"mass_kg":null,"dimensions":null,"purposes":["nav"],"wikipedia_slug":null,"has_3d_model":false,"image_url":null,"decayed_at":null,"tle_current":{"epoch":"2026-09-19T13:41:08.149344Z","epoch_age_seconds":94668,"freshness":"FRESH","line1":"1 44299U 19030A   26262.57023321 -.00000010  00000+0  00000+0 0  9992","line2":"2 44299  64.3695 189.4408 0011586 276.2227 270.4820  2.13102458 56938","mean_motion":2.13102458,"eccentricity":0.0011586,"inclination_deg":64.3695,"raan_deg":189.4408,"arg_perigee_deg":276.2227,"mean_anomaly_deg":270.482,"bstar":0,"rev_number":5693,"period_min":675.73129541284,"perigee_km":19100.297324848,"apogee_km":19159.404434362,"semimajor_km":25507.987879605,"source":"CELESTRAK","updated_at":"2026-09-20T09:00:46.277927Z"}}}